Station: Rottnest Island  

  Atmospheric Gas Attenuation - ITU Rec 676-11   ----------------- dB/100km -----------------
Date Time Temp RH % AH g/m3 Dew Point Wind Direction Speed kph Gust kph Barometer mB Rainfall Since 9am 24GHz 47GHz 76GHz 122GHz 134GHz 241GHz
08/05 04:30 17 56 8.1 8.2 28 39 1028.6 0 18.4 24.8 37.0 96.7 89.3 307.0
08/05 04:20 16.8 57 8.15 8.2 24 28 1028.5 0 18.5 24.9 37.3 97.5 90.2 309.9
08/05 04:10 16.9 56 8.05 8.1 28 35 1028.5 0 18.3 24.7 36.8 96.3 88.8 305.1
08/05 04:00 16.7 57 8.1 8.1 26 35 1028.4 0 18.4 24.8 37.1 97.1 89.7 308.1
08/05 03:50 16.7 58 8.24 8.4 20 24 1028.4 0 18.7 25.1 37.6 98.5 91.4 314.3
08/05 03:40 16.8 57 8.15 8.2 24 28 1028.4 0 18.5 24.9 37.2 97.5 90.2 309.9
08/05 03:30 16.6 59 8.33 8.6 20 37 1028.4 0 18.9 25.2 38.0 99.6 92.7 318.7
08/05 03:20 16.6 59 8.33 8.6 24 30 1028.4 0 18.9 25.2 38.0 99.6 92.7 318.7
08/05 03:10 16.6 58 8.19 8.3 19 20 1028.5 0 18.6 25.0 37.5 98.1 90.9 312.5
08/05 03:00 16.8 56 8.01 8 24 35 1028.6 0 18.2 24.7 36.7 96.1 88.4 303.8
08/05 02:50 16.8 57 8.15 8.2 22 26 1028.4 0 18.5 24.9 37.2 97.5 90.2 309.9
08/05 02:40 16.9 57 8.2 8.3 24 30 1028.3 0 18.6 24.9 37.4 97.8 90.7 311.7
08/05 02:30 17 56 8.1 8.2 24 35 1028.4 0 18.4 24.8 37.0 96.7 89.3 306.9
08/05 02:20 17 57 8.25 8.4 26 30 1028.3 0 18.7 25.0 37.5 98.2 91.2 313.5
08/05 02:10 17.1 56 8.15 8.3 20 28 1028.3 0 18.5 24.8 37.1 97.1 89.8 308.7
08/05 02:00 17.2 56 8.2 8.4 28 41 1028.2 0 18.6 24.9 37.2 97.5 90.3 310.5
08/05 01:50 17.2 55 8.05 8.1 30 33 1028.2 0 18.2 24.6 36.7 95.9 88.4 303.9
08/05 01:40 17.2 56 8.2 8.4 24 28 1028.2 0 18.6 24.9 37.2 97.5 90.3 310.5
08/05 01:30 17.1 56 8.15 8.3 24 33 1028.2 0 18.5 24.8 37.1 97.1 89.8 308.7
08/05 01:20 17.2 56 8.2 8.4 22 30 1028.2 0 18.6 24.9 37.2 97.5 90.3 310.5
08/05 01:10 17.3 55 8.1 8.2 28 35 1028.2 0 18.3 24.7 36.8 96.3 89.0 305.7
08/05 01:00 17.4 55 8.15 8.3 28 39 1028.3 0 18.4 24.7 37.0 96.7 89.5 307.5
08/05 00:50 17.3 54 7.95 7.9 28 37 1028.3 0 18.0 24.4 36.3 94.8 87.1 299.2
08/05 00:40 17.4 54 8 8 24 28 1028.3 0 18.1 24.5 36.4 95.2 87.6 301.0
08/05 00:30 17.4 54 8 8 26 39 1028.4 0 18.1 24.5 36.4 95.2 87.6 301.0
08/05 00:20 17.7 52 7.85 7.7 28 35 1028.4 0 17.8 24.2 35.7 93.4 85.4 293.4
08/05 00:10 17.8 52 7.89 7.8 28 33 1028.3 0 17.9 24.2 35.8 93.6 85.8 294.7
08/05 00:00 17.9 51 7.79 7.6 24 39 1028.4 0 17.7 24.0 35.4 92.5 84.5 290.1
07/05 23:50 17.9 51 7.79 7.6 28 33 1028.5 0 17.7 24.1 35.4 92.5 84.5 290.1
07/05 23:40 18.1 50 7.72 7.5 20 26 1028.5 0 17.5 23.9 35.1 91.6 83.4 286.4
07/05 23:30 18.2 49 7.62 7.3 30 43 1028.3 0 17.3 23.7 34.6 90.5 82.1 281.7
07/05 23:20 18.3 50 7.82 7.7 28 33 1028.3 0 17.7 24.0 35.3 92.4 84.4 289.9
07/05 23:10 18.2 49 7.62 7.3 24 28 1028.3 0 17.3 23.7 34.6 90.5 82.1 281.7
07/05 23:00 18 51 7.83 7.7 20 28 1028.4 0 17.7 24.1 35.5 92.8 84.9 291.5
07/05 22:50 18.1 50 7.72 7.5 22 26 1028.4 0 17.5 23.9 35.1 91.6 83.4 286.4
07/05 22:40 17.9 51 7.79 7.6 20 22 1028.4 0 17.7 24.0 35.4 92.5 84.5 290.1
07/05 22:30 18 52 7.99 8 17 24 1028.4 0 18.1 24.3 36.1 94.4 86.8 298.3
07/05 22:20 18 51 7.83 7.7 15 19 1028.5 0 17.7 24.1 35.5 92.8 84.9 291.5
07/05 22:10 18.2 52 8.08 8.2 13 15 1028.4 0 18.3 24.4 36.3 95.1 87.7 301.5
07/05 22:00 18 54 8.29 8.6 15 20 1028.3 0 18.7 24.8 37.2 97.4 90.5 311.4
07/05 21:50 18.1 53 8.19 8.4 15 17 1028.3 0 18.5 24.6 36.8 96.3 89.2 306.6
07/05 21:40 18.6 49 7.8 7.7 15 19 1028.2 0 17.7 23.9 35.1 91.8 83.9 288.0
07/05 21:30 18.7 48 7.68 7.5 19 26 1028.1 0 17.4 23.7 34.6 90.5 82.3 282.5
07/05 21:20 18.7 47 7.52 7.2 20 24 1028.1 0 17.1 23.4 34.1 89.0 80.4 275.7
07/05 21:10 18.7 47 7.52 7.2 20 24 1028.1 0 17.1 23.4 34.1 89.0 80.4 275.7
07/05 21:00 18.9 47 7.61 7.4 20 30 1028 0 17.2 23.5 34.3 89.6 81.2 278.8
07/05 20:50 18.9 46 7.45 7 22 28 1027.9 0 16.9 23.3 33.7 88.0 79.3 272.1
07/05 20:40 19 46 7.5 7.1 20 28 1027.9 0 17.0 23.3 33.8 88.4 79.8 273.8
07/05 20:30 19.2 46 7.58 7.3 22 35 1027.8 0 17.2 23.4 34.0 89.0 80.6 276.5
07/05 20:20 19.2 46 7.58 7.3 22 28 1027.7 0 17.2 23.4 34.0 89.0 80.5 276.5
07/05 20:10 19.3 46 7.63 7.4 20 26 1027.7 0 17.3 23.4 34.2 89.3 81.0 278.2
07/05 20:00 19.4 47 7.84 7.8 20 32 1027.7 0 17.7 23.7 34.9 91.3 83.5 286.7
07/05 19:50 19.5 46 7.72 7.6 22 28 1027.6 0 17.5 23.5 34.4 90.0 81.9 281.3
07/05 19:40 19.6 46 7.76 7.7 20 28 1027.6 0 17.5 23.5 34.5 90.2 82.3 282.6
07/05 19:30 19.5 50 8.39 8.8 20 32 1027.6 0 18.9 24.5 36.9 96.5 90.0 309.7
07/05 19:20 19.5 49 8.22 8.5 22 28 1027.6 0 18.5 24.2 36.3 94.9 87.9 302.4
07/05 19:10 19.8 49 8.37 8.8 19 24 1027.5 0 18.8 24.4 36.7 96.0 89.4 307.7
07/05 19:00 19.7 50 8.49 9 19 26 1027.4 0 19.1 24.6 37.2 97.3 91.0 313.2
07/05 18:50 19.9 48 8.25 8.6 19 20 1027.3 0 18.5 24.2 36.2 94.7 87.8 302.1
07/05 18:40 19.8 48 8.2 8.5 20 24 1027.2 0 18.4 24.1 36.0 94.3 87.3 300.4
07/05 18:30 20.1 47 8.17 8.4 20 28 1027.1 0 18.4 24.0 35.8 93.6 86.6 297.9
07/05 18:20 20.1 48 8.34 8.8 22 30 1027.1 0 18.7 24.2 36.4 95.3 88.7 305.2
07/05 18:10 20.1 47 8.17 8.4 22 30 1027 0 18.4 24.0 35.8 93.6 86.6 297.9
07/05 18:00 20.1 47 8.17 8.4 20 28 1026.9 0 18.4 24.0 35.8 93.6 86.6 297.9
07/05 17:50 20.1 49 8.52 9.1 17 20 1027 0 19.1 24.5 37.1 97.1 90.9 312.8
07/05 17:40 20.1 48 8.34 8.8 17 22 1027 0 18.7 24.2 36.4 95.3 88.7 305.1
07/05 17:30 20.4 45 7.96 8.1 20 26 1026.9 0 17.9 23.6 34.9 91.2 83.8 288.0
07/05 17:20 20.3 46 8.09 8.3 17 22 1026.9 0 18.2 23.8 35.4 92.6 85.4 293.8
07/05 17:10 20.6 46 8.23 8.6 17 19 1026.9 0 18.5 23.9 35.8 93.6 86.8 298.6
07/05 17:00 20.6 45 8.05 8.3 15 20 1026.9 0 18.1 23.7 35.1 91.9 84.7 291.0
07/05 16:50 20.7 47 8.46 9 11 15 1026.9 0 19.0 24.3 36.6 95.7 89.5 307.9
07/05 16:40 20.6 51 9.13 10.1 13 19 1027 0 20.4 25.3 39.1 102.5 97.8 337.0
07/05 16:30 20.6 50 8.95 9.8 13 17 1027 0 20.0 25.0 38.4 100.7 95.6 329.3
07/05 16:20 20.5 53 9.43 10.6 15 17 1027.1 0 21.0 25.8 40.3 105.7 101.6 350.6
07/05 16:10 20.5 51 9.07 10 17 19 1027.1 0 20.2 25.2 38.9 102.1 97.2 334.9
07/05 16:00 20.5 52 9.25 10.3 15 20 1027.2 0 20.6 25.5 39.6 103.9 99.4 342.7
07/05 15:50 20.6 51 9.13 10.1 13 17 1027.1 0 20.4 25.3 39.1 102.5 97.8 337.1
07/05 15:40 20.5 51 9.07 10 15 17 1027.2 0 20.2 25.2 38.9 102.1 97.2 334.9
07/05 15:30 20.5 52 9.25 10.3 17 22 1027.2 0 20.6 25.5 39.6 103.9 99.4 342.7
07/05 15:20 20.4 52 9.2 10.2 20 22 1027.3 0 20.5 25.5 39.5 103.5 98.9 341.0
07/05 15:10 20.3 50 8.79 9.5 20 24 1027.3 0 19.7 24.9 38.0 99.5 94.0 323.7
07/05 15:00 20.4 50 8.84 9.6 19 32 1027.3 0 19.8 24.9 38.1 99.9 94.5 325.4
07/05 14:50 20.6 51 9.13 10.1 19 22 1027.3 0 20.4 25.3 39.1 102.5 97.8 337.1
07/05 14:40 21.1 47 8.66 9.4 15 19 1027.5 0 19.4 24.5 37.1 97.3 91.5 315.0
07/05 14:30 20.7 43 7.74 7.7 17 30 1027.5 0 17.4 23.2 34.0 88.8 80.9 277.9
07/05 14:20 20.9 45 8.19 8.5 20 26 1027.7 0 18.4 23.8 35.5 93.0 86.1 296.0
07/05 14:10 20.9 44 8.01 8.2 22 26 1027.8 0 18.0 23.6 34.9 91.2 83.9 288.5
07/05 14:00 21 45 8.24 8.6 19 28 1027.9 0 18.5 23.9 35.7 93.3 86.6 297.8
07/05 13:50 20.7 47 8.46 9 15 20 1027.9 0 18.9 24.3 36.6 95.8 89.5 308.2
07/05 13:40 20.6 47 8.41 8.9 15 20 1028.1 0 18.8 24.3 36.5 95.5 89.1 306.5
07/05 13:30 20.6 48 8.59 9.2 17 26 1028.1 0 19.2 24.5 37.1 97.3 91.2 314.1
07/05 13:20 19.9 48 8.25 8.6 17 24 1028.2 0 18.5 24.2 36.2 94.7 87.9 302.4
07/05 13:10 20.5 48 8.54 9.1 15 19 1028.3 0 19.1 24.5 37.0 96.9 90.8 312.4
07/05 13:00 20.3 48 8.44 8.9 19 26 1028.4 0 18.9 24.4 36.7 96.2 89.8 309.0
07/05 12:50 20 48 8.29 8.7 22 26 1028.6 0 18.6 24.2 36.3 95.1 88.3 303.8
07/05 12:40 19.8 48 8.2 8.5 24 26 1028.7 0 18.4 24.2 36.1 94.4 87.4 300.7
07/05 12:30 20.1 48 8.34 8.8 20 30 1029.1 0 18.7 24.3 36.5 95.5 88.8 305.6
07/05 12:20 19.6 51 8.61 9.2 19 20 1029.3 0 19.3 24.9 37.7 98.8 92.7 319.2
07/05 12:10 20 50 8.64 9.3 15 20 1029.4 0 19.4 24.8 37.7 98.6 92.6 319.0
07/05 12:00 19.7 51 8.66 9.3 22 32 1029.6 0 19.4 24.9 37.9 99.2 93.3 321.1

Last Refresh: 08-May-2026 06:07:33

Bureau of Meteorology